This is the latest recevied weather packets stored in our database for station/object F5LKO-13. If no packets are shown the sender has not sent any weather packets the latest 10 day(s).
| Time | Temp. | Humidity | Pressure | Rain* | Wind** | Luminosity | Snow |
|---|---|---|---|---|---|---|---|
| 1777727896 | 21.11° C | 99% | 1018.9 hPa | 0 mm | - | 0 W/m² | - |
| 1777727590 | 21.11° C | 99% | 1018.4 hPa | 0 mm | - | 0 W/m² | - |
| 1777727284 | 21.67° C | 99% | 1018.3 hPa | 0 mm | - | 1 W/m² | - |
| 1777726979 | 21.67° C | 99% | 1018.1 hPa | 0 mm | - | 2 W/m² | - |
| 1777726683 | 22.22° C | 99% | 1017.9 hPa | 0 mm | - | 3 W/m² | - |
| 1777726368 | 22.22° C | 99% | 1017.8 hPa | 0 mm | - | 4 W/m² | - |
| 1777726062 | 22.78° C | 99% | 1017.7 hPa | 0 mm | - | 5 W/m² | - |
| 1777725756 | 23.33° C | 99% | 1017.8 hPa | 0 mm | - | 6 W/m² | - |
| 1777725450 | 23.89° C | 99% | 1017.9 hPa | 0 mm | - | 9 W/m² | - |
| 1777725144 | 23.89° C | 99% | 1017.9 hPa | 0 mm | - | 16 W/m² | - |
| 1777724847 | 23.33° C | 99% | 1017.9 hPa | 0 mm | - | 26 W/m² | - |
| 1777724532 | 22.78° C | 99% | 1017.9 hPa | 0 mm | - | 28 W/m² | - |
| 1777724226 | 22.22° C | 99% | 1017.8 hPa | 0 mm | - | 24 W/m² | - |
| 1777723920 | 22.78° C | 99% | 1017.7 hPa | 0 mm | - | 16 W/m² | - |
| 1777723614 | 22.78° C | 99% | 1017.9 hPa | 0 mm | - | 17 W/m² | - |
| 1777723308 | 22.22° C | 99% | 1017.9 hPa | 0 mm | - | 19 W/m² | - |
| 1777723009 | 22.78° C | 99% | 1017.9 hPa | 0 mm | - | 18 W/m² | - |
| 1777722695 | 22.22° C | 99% | 1017.9 hPa | 0 mm | - | 19 W/m² | - |
| 1777722389 | 22.78° C | 99% | 1018 hPa | 0 mm | - | 13 W/m² | - |
| 1777722083 | 22.78° C | 99% | 1018 hPa | 0 mm | - | 30 W/m² | - |
| 1777721777 | 20.56° C | 99% | 1018.1 hPa | 0 mm | - | 26 W/m² | - |
| 1777721471 | 20° C | 99% | 1018.1 hPa | 0 mm | - | 30 W/m² | - |
| 1777721174 | 20° C | 99% | 1018.3 hPa | 0 mm | - | 4 W/m² | - |
| 1777720859 | 20° C | 99% | 1018.3 hPa | 0 mm | - | 2 W/m² | - |
| 1777720553 | 20° C | 99% | 1018.5 hPa | 0 mm | - | 2 W/m² | - |
* Rain latest hour (hover to see other rain measurements)
** Current wind speed in m/s (hover to see current wind gust speed)